Location: Unspecified
(51.2667°N, 0.0000°E)
Time: 09:10:37
(UTC+00:00)

DX 1 - Visible Passes

Search period start: 24 August 2019 00:00
Search period end: 03 September 2019 00:00
Orbit: 619 x 631 km, 98.4° (Epoch: 24 August)

Date Brightness Start Highest point End Pass type
(mag) Time Alt. Az. Time Alt. Az. Time Alt. Az.
24 Aug ? 02:22:45 10° ESE 02:26:28 29° ENE 02:30:12 10° N visible
24 Aug ? 03:58:29 10° SSW 04:02:31 38° W 04:06:36 10° NNW visible
25 Aug ? 02:41:09 10° SE 02:45:12 41° ENE 02:49:17 10° N visible
25 Aug ? 04:17:51 10° SSW 04:21:30 26° W 04:25:11 10° NW visible
26 Aug ? 01:28:05 10° ENE 01:28:42 10° NE 01:29:19 10° NE visible
26 Aug ? 02:59:44 10° SSE 03:03:59 60° ENE 03:08:17 10° N visible
27 Aug ? 01:44:58 10° E 01:47:18 14° NE 01:49:37 10° NNE visible
27 Aug ? 03:18:29 10° SSE 03:22:49 89° ENE 03:27:11 10° NNW visible
28 Aug ? 02:02:49 10° ESE 02:05:55 20° ENE 02:09:04 10° NNE visible
28 Aug ? 03:37:24 10° S 03:41:41 62° WSW 03:46:01 10° NNW visible
29 Aug ? 02:20:58 10° ESE 02:24:36 27° ENE 02:28:17 10° N visible
29 Aug ? 03:56:32 10° S 04:00:37 41° W 04:04:45 10° NNW visible
30 Aug ? 02:39:20 10° SE 02:43:20 38° ENE 02:47:23 10° N visible
30 Aug ? 04:15:51 10° SSW 04:19:35 28° W 04:23:22 10° NW visible
31 Aug ? 02:57:52 10° SSE 03:02:06 56° ENE 03:06:23 10° N visible
31 Aug ? 04:35:28 10° SW 04:38:37 19° W 04:41:47 10° NW visible
01 Sep ? 01:43:18 10° E 01:45:27 14° NE 01:47:36 10° NNE visible
01 Sep ? 03:16:36 10° SSE 03:20:55 83° ENE 03:25:18 10° NNW visible
02 Sep ? 02:01:04 10° ESE 02:04:05 19° ENE 02:07:06 10° NNE visible
02 Sep ? 03:35:29 10° S 03:39:47 66° WSW 03:44:09 10° NNW visible
